Regional Weather Roundup
Issued by NWS

Home | Current Version | Previous Version | Graphics & Text | Print | Product List | Glossary On
Versions: 1 2 3 4 5 6 7 8 9 10 11 12 13 14 15 16 17 18 19 20 21 22 23 24 25 26 27 28
000
ASUS45 KSLC 272310
RWRUT

UTAH REGIONAL WEATHER ROUNDUP
NATIONAL WEATHER SERVICE SALT LAKE CITY UT
500 PM MDT THU APR 27 2017

UTZ001>011-023>025-280000-

NORTHERN UTAH

CITY           SKY/WX    TMP DP  RH WIND       PRES   REMARKS
BRIGHAM CITY   PTSUNNY   48  23  38 NW13      29.81S
HILL AFB       PTSUNNY   46  24  42 W15       29.80F
LOGAN          CLOUDY    46  28  49 SW15      29.78
OGDEN          MOSUNNY   46  28  49 NW14G20   29.79F
SALT LAKE CITY PTSUNNY   50  27  40 NW18      29.82S
TOOELE VALLEY  PTSUNNY   46  28  49 NW16      29.83F
WENDOVER       MOSUNNY   53  18  25 N15G22    29.83S
WEST JORDAN    MOSUNNY   50  34  54 NW18G24   29.83S

$$

UTZ011>015-024>027-280000-

CENTRAL/NORTHEAST UTAH

CITY           SKY/WX    TMP DP  RH WIND       PRES   REMARKS
PROVO AIRPORT  PTSUNNY   48  25  40 N13       29.81F
MOAB/CANYONLAN MOSUNNY   57  11  16 W24G33    29.65S
DELTA          PTSUNNY   50  23  34 N14G21    29.80S
PRICE          SUNNY     48  16  27 NW21G33   29.72S
ROOSEVELT      SUNNY     52  18  25 W29G43    29.69S
VERNAL         CLOUDY    48  22  35 SE8       29.64R

$$

UTZ013>016-019>022-027-280000-

SOUTHERN UTAH

CITY           SKY/WX    TMP DP  RH WIND       PRES   REMARKS
BRYCE CANYON   PTSUNNY   48  21  34 NW20G29   29.77F
CEDAR CITY     PTSUNNY   59  20  22 W14       29.74F
MILFORD        PTSUNNY   55  25  31 NE13      29.76F
ST GEORGE      PTCLDY    74  26  16 W16G23    29.65F
HANKSVILLE     MOSUNNY   59  12  15 NW23G33   29.73S
BLANDING       PTSUNNY   56   9  15 NW22G31   29.73S

$$

REGIONAL REPORTS     COLORADO/ARIZONA

CITY           SKY/WX    TMP DP  RH WIND       PRES   REMARKS
CRAIG, CO      CLOUDY    43  27  53 SW22G29   29.66F
GRAND JUNCTION CLOUDY    52  22  30 NW20G28   29.63S
RIFLE, CO      CLOUDY    50  26  39 VRB3      29.62R
MONTROSE, CO   CLOUDY    58   0   9 W24G33    29.63S
CORTEZ, CO     CLOUDY    57  22  25 W16G36    29.65F
COLORADO CITY    N/A     68  27  21 W23G33    29.75F
PAGE, AZ       PTSUNNY   70  22  16 W14G25    29.64F
GRAND CANYON   MOSUNNY   60  22  23 W20G28    29.78S
KINGMAN, AZ    PTSUNNY   78  27  15 NW14      29.72F
FLAGSTAFF, AZ  CLOUDY    62  17  17 SW22G39   29.77F

$$

REGIONAL REPORTS    NEVADA/IDAHO/WYOMING

CITY           SKY/WX    TMP DP  RH WIND       PRES   REMARKS
LAS VEGAS, NV  PTSUNNY   83  17   8 N28G35    29.63F
ELY, NY        MOSUNNY   49  15  25 NW21G31   29.85S
ELKO, NV       LGT RAIN  44  30  57 N22       29.92R
POCATELLO, ID  PTSUNNY   46  30  53 SW30G43   29.77F
BURLEY, ID     LGT RAIN  47  21  35 W26G39    29.82F
FORT BRIDGER,  MOCLDY    39  24  53 W29G39    29.76S WCI  28
EVANSTON, WY   CLOUDY    38  22  52 W26G32    29.76R WCI  26
ROCK SPRINGS,  CLOUDY    44  21  40 W32G44    29.65R
KEMMERER, WY     N/A     36  19  51 W28G36    29.72S WCI  23

$$




USA.gov is the U.S. government's official web portal to all federal, state and local government web resources and services.